| time (UTC) | temp F | wind direction | speed MPH | gust MPH | rain 1hr in | rain 24hr in | rain mn in | humidity % | barometer mb |
| 20260906223830 | 86 | 341 | 2.0 | 5.0 | 0.00 | 0.02 | 0.00 | 38 | 1018.8 |
| 20260906222822 | 85 | 2 | 4.0 | 5.0 | 0.00 | 0.02 | 0.00 | 38 | 1019.0 |
| 20260906221831 | 86 | 31 | 3.0 | 4.0 | 0.00 | 0.02 | 0.00 | 39 | 1019.1 |
| 20260906220831 | 86 | 120 | 4.0 | 5.0 | 0.00 | 0.02 | 0.00 | 38 | 1019.2 |
| 20260906215832 | 86 | 140 | 2.0 | 4.0 | 0.00 | 0.02 | 0.00 | 37 | 1019.3 |
| 20260906214842 | 85 | 102 | 2.0 | 3.0 | 0.00 | 0.02 | 0.00 | 39 | 1019.5 |
| 20260906213843 | 85 | 107 | 3.0 | 4.0 | 0.00 | 0.02 | 0.00 | 36 | 1019.5 |
| 20260906212823 | 85 | 28 | 5.0 | 7.0 | 0.00 | 0.02 | 0.00 | 35 | 1019.6 |
| 20260906211817 | 85 | 137 | 1.0 | 3.0 | 0.00 | 0.02 | 0.00 | 37 | 1019.7 |
| 20260906210823 | 84 | 27 | 2.0 | 3.0 | 0.00 | 0.02 | 0.00 | 38 | 1020.0 |
| 20260906205823 | 84 | 22 | 5.0 | 7.0 | 0.00 | 0.02 | 0.00 | 39 | 1020.1 |
| 20260906204854 | 84 | 27 | 4.0 | 7.0 | 0.00 | 0.02 | 0.00 | 39 | 1020.2 |
| 20260906203823 | 84 | 51 | 2.0 | 3.0 | 0.00 | 0.02 | 0.00 | 40 | 1020.3 |
| 20260906202818 | 84 | 66 | 3.0 | 5.0 | 0.00 | 0.02 | 0.00 | 40 | 1020.4 |
| 20260906201818 | 83 | 128 | 4.0 | 9.0 | 0.00 | 0.02 | 0.00 | 40 | 1020.5 |
| 20260906200838 | 83 | 35 | 2.0 | 5.0 | 0.00 | 0.02 | 0.00 | 39 | 1020.5 |
| 20260906195818 | 83 | 84 | 2.0 | 4.0 | 0.00 | 0.02 | 0.00 | 38 | 1020.5 |
| 20260906194819 | 83 | 109 | 4.0 | 8.0 | 0.00 | 0.02 | 0.00 | 39 | 1020.6 |
| 20260906193818 | 82 | 44 | 2.0 | 4.0 | 0.00 | 0.02 | 0.00 | 41 | 1020.7 |
| 20260906192818 | 82 | 78 | 5.0 | 6.0 | 0.00 | 0.02 | 0.00 | 40 | 1020.7 |
| 20260906191839 | 82 | 14 | 6.0 | 9.0 | 0.00 | 0.02 | 0.00 | 39 | 1020.9 |
| 20260906190819 | 82 | 118 | 4.0 | 6.0 | 0.00 | 0.02 | 0.00 | 41 | 1021.0 |
| 20260906185819 | 81 | 100 | 3.0 | 7.0 | 0.00 | 0.02 | 0.00 | 42 | 1021.2 |
| 20260906184820 | 81 | 60 | 2.0 | 4.0 | 0.00 | 0.02 | 0.00 | 42 | 1021.4 |
| 20260906183819 | 80 | 210 | 3.0 | 6.0 | 0.00 | 0.02 | 0.00 | 42 | 1021.6 |
| 20260906182820 | 80 | 32 | 4.0 | 5.0 | 0.00 | 0.02 | 0.00 | 43 | 1021.7 |
| 20260906181820 | 79 | 118 | 3.0 | 5.0 | 0.00 | 0.02 | 0.00 | 40 | 1021.9 |
| 20260906180821 | 79 | 14 | 5.0 | 7.0 | 0.00 | 0.02 | 0.00 | 41 | 1022.0 |
| 20260906175820 | 79 | 35 | 5.0 | 6.0 | 0.00 | 0.02 | 0.00 | 40 | 1022.1 |
| 20260906174840 | 77 | 19 | 3.0 | 6.0 | 0.00 | 0.02 | 0.00 | 45 | 1022.3 |
| 20260906173841 | 77 | 24 | 3.0 | 5.0 | 0.00 | 0.02 | 0.00 | 45 | 1022.6 |
| 20260906172820 | 77 | 16 | 3.0 | 5.0 | 0.00 | 0.02 | 0.00 | 45 | 1022.8 |
| 20260906171821 | 76 | 125 | 2.0 | 4.0 | 0.00 | 0.02 | 0.00 | 47 | 1022.9 |
| 20260906170822 | 76 | 36 | 3.0 | 3.0 | 0.00 | 0.02 | 0.00 | 49 | 1022.9 |
| 20260906165821 | 75 | 210 | 2.0 | 3.0 | 0.00 | 0.02 | 0.00 | 51 | 1023.0 |
| 20260906164822 | 75 | 158 | 4.0 | 5.0 | 0.00 | 0.02 | 0.00 | 53 | 1023.1 |
| 20260906163821 | 75 | 123 | 3.0 | 4.0 | 0.00 | 0.02 | 0.00 | 52 | 1023.1 |
| 20260906162821 | 74 | 26 | 6.0 | 6.0 | 0.00 | 0.02 | 0.00 | 54 | 1023.1 |
| 20260906161821 | 74 | 195 | 4.0 | 5.0 | 0.00 | 0.02 | 0.00 | 57 | 1023.1 |
| 20260906160822 | 74 | 5 | 3.0 | 4.0 | 0.00 | 0.02 | 0.00 | 57 | 1023.0 |
| 20260906155822 | 73 | 55 | 2.0 | 3.0 | 0.00 | 0.02 | 0.00 | 57 | 1023.1 |
| 20260906154822 | 73 | 7 | 2.0 | 5.0 | 0.00 | 0.02 | 0.00 | 56 | 1023.0 |
| 20260906153822 | 72 | 116 | 1.0 | 2.0 | 0.00 | 0.02 | 0.00 | 56 | 1023.0 |
| 20260906152822 | 71 | 4 | 3.0 | 4.0 | 0.00 | 0.02 | 0.00 | 57 | 1022.9 |
| 20260906151822 | 71 | 204 | 2.0 | 3.0 | 0.00 | 0.02 | 0.00 | 58 | 1023.0 |
| 20260906150823 | 70 | 248 | 2.0 | 4.0 | 0.00 | 0.02 | 0.00 | 59 | 1023.2 |
| 20260906145823 | 69 | 168 | 2.0 | 2.0 | 0.00 | 0.02 | 0.00 | 62 | 1023.2 |
| 20260906144823 | 69 | 301 | 2.0 | 2.0 | 0.00 | 0.02 | 0.00 | 65 | 1023.3 |
| 20260906143823 | 67 | 223 | 2.0 | 3.0 | 0.00 | 0.02 | 0.00 | 68 | 1023.3 |
| 20260906142824 | 67 | 317 | 2.0 | 2.0 | 0.00 | 0.02 | 0.00 | 71 | 1023.2 |
| 20260906141829 | 67 | 24 | 3.0 | 4.0 | 0.00 | 0.02 | 0.00 | 73 | 1023.2 |
| 20260906140824 | 66 | 352 | 2.0 | 2.0 | 0.00 | 0.02 | 0.00 | 74 | 1023.1 |
| 20260906135844 | 65 | 33 | 3.0 | 3.0 | 0.00 | 0.02 | 0.00 | 75 | 1023.2 |
| 20260906134824 | 63 | 24 | 2.0 | 2.0 | 0.00 | 0.02 | 0.00 | 75 | 1023.1 |
| 20260906133824 | 62 | 108 | 1.0 | 1.0 | 0.00 | 0.02 | 0.00 | 76 | 1023.1 |
| 20260906132825 | 61 | 317 | 1.0 | 2.0 | 0.00 | 0.02 | 0.00 | 76 | 1023.0 |
| 20260906131824 | 60 | 260 | 1.0 | 1.0 | 0.00 | 0.02 | 0.00 | 77 | 1023.0 |
| 20260906130825 | 60 | 269 | 2.0 | 2.0 | 0.00 | 0.02 | 0.00 | 76 | 1023.0 |
| 20260906125825 | 59 | 276 | 1.0 | 1.0 | 0.00 | 0.02 | 0.00 | 79 | 1023.0 |
| 20260906124825 | 59 | 0.0 | 0.0 | 0.00 | 0.02 | 0.00 | 80 | 1022.9 | |
| 20260906123825 | 59 | 311 | 1.0 | 1.0 | 0.00 | 0.02 | 0.00 | 79 | 1022.8 |
| 20260906122826 | 59 | 0.0 | 0.0 | 0.00 | 0.02 | 0.00 | 78 | 1022.8 | |
| 20260906121825 | 60 | 238 | 0.0 | 1.0 | 0.00 | 0.02 | 0.00 | 78 | 1022.8 |
| 20260906120826 | 60 | 289 | 2.0 | 2.0 | 0.00 | 0.02 | 0.00 | 78 | 1022.8 |
| 20260906115826 | 60 | 314 | 1.0 | 1.0 | 0.00 | 0.02 | 0.00 | 78 | 1022.8 |
| 20260906114826 | 60 | 344 | 1.0 | 2.0 | 0.00 | 0.02 | 0.00 | 78 | 1022.9 |
| 20260906113847 | 60 | 358 | 2.0 | 3.0 | 0.00 | 0.02 | 0.00 | 77 | 1022.6 |
| 20260906112827 | 60 | 274 | 1.0 | 1.0 | 0.00 | 0.02 | 0.00 | 77 | 1022.7 |
| 20260906111827 | 60 | 308 | 1.0 | 1.0 | 0.00 | 0.02 | 0.00 | 76 | 1022.7 |
| 20260906110827 | 61 | 340 | 1.0 | 2.0 | 0.00 | 0.02 | 0.00 | 74 | 1022.7 |
| 20260906105827 | 61 | 331 | 1.0 | 1.0 | 0.00 | 0.02 | 0.00 | 70 | 1022.7 |
| 20260906104828 | 61 | 342 | 1.0 | 2.0 | 0.00 | 0.02 | 0.00 | 69 | 1022.5 |
| 20260906103848 | 62 | 1 | 2.0 | 2.0 | 0.00 | 0.02 | 0.00 | 67 | 1022.5 |
| 20260906102828 | 62 | 277 | 1.0 | 1.0 | 0.00 | 0.02 | 0.00 | 67 | 1022.5 |
| 20260906101828 | 62 | 280 | 1.0 | 2.0 | 0.00 | 0.02 | 0.00 | 67 | 1022.7 |
| 20260906100822 | 62 | 343 | 2.0 | 3.0 | 0.00 | 0.02 | 0.00 | 65 | 1022.5 |
| 20260906095848 | 62 | 3 | 2.0 | 2.0 | 0.00 | 0.02 | 0.00 | 67 | 1022.7 |
| 20260906094849 | 63 | 323 | 1.0 | 2.0 | 0.00 | 0.02 | 0.00 | 65 | 1022.6 |
| 20260906093828 | 63 | 24 | 1.0 | 2.0 | 0.00 | 0.02 | 0.00 | 62 | 1022.6 |
| 20260906092828 | 63 | 0.0 | 0.0 | 0.00 | 0.02 | 0.00 | 60 | 1022.5 | |
| 20260906091829 | 64 | 226 | 1.0 | 1.0 | 0.00 | 0.02 | 0.00 | 61 | 1022.5 |
| 20260906090829 | 64 | 0.0 | 0.0 | 0.00 | 0.02 | 0.00 | 59 | 1022.3 | |
| 20260906085836 | 66 | 223 | 1.0 | 1.0 | 0.00 | 0.02 | 0.00 | 57 | 1022.4 |
| 20260906084836 | 67 | 272 | 2.0 | 2.0 | 0.00 | 0.02 | 0.00 | 52 | 1022.2 |
| 20260906083837 | 67 | 329 | 2.0 | 3.0 | 0.00 | 0.02 | 0.00 | 53 | 1022.1 |
| 20260906082837 | 67 | 358 | 3.0 | 3.0 | 0.00 | 0.02 | 0.00 | 52 | 1021.9 |
| 20260906081837 | 67 | 314 | 1.0 | 2.0 | 0.00 | 0.02 | 0.00 | 53 | 1021.9 |
| 20260906080858 | 68 | 313 | 2.0 | 3.0 | 0.00 | 0.02 | 0.00 | 53 | 1021.8 |
| 20260906075838 | 67 | 303 | 3.0 | 4.0 | 0.00 | 0.02 | 0.00 | 52 | 1022.0 |
| 20260906074838 | 66 | 339 | 2.0 | 3.0 | 0.00 | 0.02 | 0.00 | 54 | 1022.1 |
| 20260906073857 | 66 | 0.0 | 0.0 | 0.00 | 0.02 | 0.00 | 57 | 1022.1 | |
| 20260906072858 | 67 | 326 | 0.0 | 0.0 | 0.00 | 0.02 | 0.00 | 55 | 1022.1 |
| 20260906071816 | 67 | 281 | 1.0 | 1.0 | 0.00 | 0.02 | 0.00 | 55 | 1022.1 |
| 20260906070816 | 67 | 295 | 2.0 | 2.0 | 0.00 | 0.02 | 0.00 | 56 | 1022.2 |
| 20260906065836 | 68 | 307 | 1.0 | 1.0 | 0.00 | 0.02 | 0.00 | 53 | 1022.1 |
| 20260906064838 | 68 | 320 | 1.0 | 2.0 | 0.00 | 0.02 | 0.00 | 57 | 1022.3 |
| 20260906063840 | 68 | 240 | 1.0 | 1.0 | 0.00 | 0.02 | 0.00 | 58 | 1022.3 |
| 20260906062831 | 68 | 328 | 2.0 | 2.0 | 0.00 | 0.02 | 0.00 | 60 | 1022.4 |
| 20260906061853 | 69 | 265 | 2.0 | 2.0 | 0.01 | 0.02 | 0.00 | 59 | 1022.4 |
| 20260906060832 | 69 | 3 | 2.0 | 3.0 | 0.02 | 0.02 | 0.00 | 58 | 1022.3 |
| 20260906055817 | 69 | 186 | 3.0 | 4.0 | 0.02 | 0.02 | 0.02 | 59 | 1022.3 |
| 20260906054817 | 69 | 279 | 1.0 | 2.0 | 0.02 | 0.02 | 0.02 | 58 | 1022.3 |
| 20260906053837 | 70 | 223 | 2.0 | 3.0 | 0.02 | 0.02 | 0.02 | 59 | 1022.2 |
| 20260906052820 | 71 | 15 | 6.0 | 8.0 | 0.02 | 0.02 | 0.02 | 57 | 1022.2 |
| 20260906051833 | 73 | 316 | 2.0 | 2.0 | 0.01 | 0.01 | 0.01 | 51 | 1023.1 |
| 20260906050853 | 74 | 152 | 3.0 | 3.0 | 0.00 | 0.00 | 0.00 | 43 | 1023.2 |
| 20260906045818 | 74 | 94 | 2.0 | 3.0 | 0.00 | 0.00 | 0.00 | 43 | 1023.1 |
| 20260906044819 | 75 | 165 | 2.0 | 2.0 | 0.00 | 0.00 | 0.00 | 40 | 1022.9 |
| 20260906043819 | 76 | 315 | 1.0 | 1.0 | 0.00 | 0.00 | 0.00 | 39 | 1022.2 |
| 20260906042822 | 77 | 17 | 5.0 | 6.0 | 0.00 | 0.00 | 0.00 | 37 | 1022.0 |
| 20260906041835 | 77 | 341 | 5.0 | 7.0 | 0.00 | 0.00 | 0.00 | 38 | 1021.9 |
| 20260906040822 | 77 | 253 | 5.0 | 7.0 | 0.00 | 0.00 | 0.00 | 38 | 1021.7 |
| 20260906035819 | 77 | 283 | 4.0 | 7.0 | 0.00 | 0.00 | 0.00 | 37 | 1021.7 |
| 20260906034841 | 76 | 198 | 4.0 | 6.0 | 0.00 | 0.00 | 0.00 | 36 | 1021.8 |
| 20260906033819 | 75 | 322 | 3.0 | 4.0 | 0.00 | 0.00 | 0.00 | 35 | 1021.4 |
| 20260906032900 | 75 | 282 | 2.0 | 3.0 | 0.00 | 0.00 | 0.00 | 36 | 1021.3 |
| 20260906031820 | 75 | 305 | 1.0 | 1.0 | 0.00 | 0.00 | 0.00 | 36 | 1021.3 |
| 20260906030821 | 75 | 250 | 2.0 | 3.0 | 0.00 | 0.00 | 0.00 | 36 | 1021.3 |
| 20260906025829 | 76 | 292 | 2.0 | 5.0 | 0.00 | 0.00 | 0.00 | 36 | 1021.0 |
| 20260906024833 | 76 | 292 | 3.0 | 3.0 | 0.00 | 0.00 | 0.00 | 36 | 1020.9 |
| 20260906023853 | 77 | 273 | 1.0 | 2.0 | 0.00 | 0.00 | 0.00 | 35 | 1020.7 |
| 20260906022832 | 77 | 287 | 2.0 | 3.0 | 0.00 | 0.00 | 0.00 | 35 | 1020.7 |
| 20260906021821 | 78 | 297 | 2.0 | 3.0 | 0.00 | 0.00 | 0.00 | 34 | 1020.6 |
| 20260906020819 | 79 | 294 | 2.0 | 3.0 | 0.00 | 0.00 | 0.00 | 33 | 1020.5 |
| 20260906015818 | 79 | 306 | 3.0 | 3.0 | 0.00 | 0.00 | 0.00 | 32 | 1020.6 |
| 20260906014838 | 79 | 309 | 3.0 | 6.0 | 0.00 | 0.00 | 0.00 | 33 | 1020.5 |
| 20260906013844 | 79 | 264 | 1.0 | 3.0 | 0.00 | 0.00 | 0.00 | 32 | 1020.5 |
| 20260906012818 | 80 | 319 | 1.0 | 2.0 | 0.00 | 0.00 | 0.00 | 33 | 1020.4 |
| 20260906011822 | 80 | 304 | 2.0 | 3.0 | 0.00 | 0.00 | 0.00 | 33 | 1020.4 |
| 20260906010822 | 80 | 334 | 2.0 | 4.0 | 0.00 | 0.00 | 0.00 | 33 | 1020.4 |
| 20260906005819 | 80 | 275 | 3.0 | 5.0 | 0.00 | 0.00 | 0.00 | 32 | 1020.5 |
| 20260906004822 | 81 | 305 | 2.0 | 5.0 | 0.00 | 0.00 | 0.00 | 32 | 1020.5 |
| 20260906003819 | 81 | 284 | 3.0 | 4.0 | 0.00 | 0.00 | 0.00 | 31 | 1020.4 |
| 20260906002819 | 82 | 288 | 3.0 | 6.0 | 0.00 | 0.00 | 0.00 | 31 | 1020.6 |
| 20260906001822 | 83 | 9 | 2.0 | 3.0 | 0.00 | 0.00 | 0.00 | 28 | 1020.5 |
| 20260906000822 | 84 | 15 | 2.0 | 3.0 | 0.00 | 0.00 | 0.00 | 28 | 1020.4 |
| 20260905235854 | 84 | 33 | 2.0 | 3.0 | 0.00 | 0.00 | 0.00 | 27 | 1020.3 |
| 20260905234828 | 84 | 15 | 3.0 | 4.0 | 0.00 | 0.00 | 0.00 | 27 | 1020.3 |
| 20260905233823 | 85 | 17 | 2.0 | 2.0 | 0.00 | 0.00 | 0.00 | 28 | 1020.3 |
| 20260905232855 | 86 | 40 | 2.0 | 3.0 | 0.00 | 0.00 | 0.00 | 28 | 1020.2 |
| 20260905231844 | 86 | 42 | 3.0 | 4.0 | 0.00 | 0.00 | 0.00 | 28 | 1020.2 |
| 20260905230823 | 86 | 23 | 4.0 | 7.0 | 0.00 | 0.00 | 0.00 | 27 | 1020.1 |
| 20260905225835 | 87 | 51 | 3.0 | 4.0 | 0.00 | 0.00 | 0.00 | 27 | 1020.0 |
| 20260905224917 | 88 | 149 | 2.0 | 3.0 | 0.00 | 0.00 | 0.00 | 26 | 1019.9 |